Location: Antin
(43.3330°N, 0.2804°E)
Time: 04:53:45
(UTC+00:00)

Cosmos 2082 - Pass Details

Date: 16 October 2021
Orbit: 835 x 853 km, 71.0° (Epoch: 02 December)

Event Time Altitude Azimuth Distance (km) Brightness Sun altitude
Rises 18:08:08 0° 336° (NNW) 3,394 7.1 -10.6°
Reaches altitude 10° 18:10:36 10° 339° (NNW) 2,456 6.4 -11.0°
Maximum altitude 18:16:14 73° 64° (ENE) 875 3.6 -12.1°
Drops below altitude 10° 18:21:49 10° 149° (SSE) 2,441 5.8 -13.1°
Sets 18:24:16 0° 151° (SSE) 3,373 6.5 -13.5°
